HULIANWANG DIGUI-87

导读 | 豆包AI

HULIANWANG DIGUI-87卫星于2025年10月16日由中国发射,该卫星纳入中国“互联网低轨”卫星星座组网。作为低轨通信卫星,它将与同系列卫星协同,补充全球网络覆盖盲区,为远洋船舶、偏远地区等场景提供高速稳定的互联网接入服务,推进中国天地一体化信息网络建设,完善全球卫星通信布局。

基本信息
目录编号:
65995
目录名称:
HULIANWANG DIGUI-87
国际标识:
2025-231A
轨道中心:
EARTH
卫星名称:
HULIANWANG DIGUI-87
卫星全名:
HULIANWANG DIGUI-87
卫星状态:
在轨 (已飞行221 天)
发射日期:
2025-10-16 UTC
国别 :
中国 (CN)
星等 :
--
轨道信息
数据来源 国际轨道数据 AOE轨道数据
星历时间 2026-05-24T08:46:55+0800
1天前
查看轨道信息
2026-05-18T17:00:00+0800
6天前
查看轨道信息
半长轴 7527.439km 7527.44km
偏心率 0.0000823 0.0000761
轨道倾角 50.001° 50.000°
近地点辐角 149.557° 125.345°
升交点赤经 262.480° 282.773°
平近点角 210.535° 143.136°
近地点 1148.682km 1148.73km
远地点 1149.922km 1149.876km
周期 108.325分钟 108.325分钟
每日圈数 13.293273 13.29327
详细信息
使用方式:
暂无
2D轨道图
3D轨道图
轨道高度分析图
轨道倾角分析图
轨道综合分析图
查看轨道综合分析图